Home   Weather   Bayreuth   Past weeks

Flag for Germany Past Weather in Bayreuth, Bavaria, Germany — Yesterday and Last 2 Weeks

Now
43 °F

Broken clouds.


Feels Like: 39 °F
Forecast: 37 / 43 °F
Wind: 6 mph from Southwest

Location: Grafenwoehr

Current Time: Feb 19, 2017 at 3:13:06 pm

Latest Report: Feb 19, 2017 at 2:38 pm


Visibility: N/A

Pressure: 30.14 "Hg

Humidity: 66%

Dew Point: 32 °F

Location of BayreuthLocation

Past Weather in Bayreuth — Graph

°F

Bayreuth Temperature Yesterday

Maximum temperature yesterday: 41 °F (at 1:32 pm)
Minimum temperature yesterday: 32 °F (at 10:58 pm)
Average temperature yesterday: 38 °F

High & Low Weather Summary for the Past Weeks

 TemperatureHumidityPressure
High54 °F (Feb 16, 2:58 pm)100% (Feb 4, 3:19 pm)30.66 "Hg (Feb 4, 3:19 pm)
Low18 °F (Feb 15, 5:58 am)40% (Feb 14, 1:58 pm)29.56 "Hg (Feb 4, 4:03 pm)
Average34 °F84%30.22 "Hg
* Reported Feb 4 2:06 pm — Feb 19 2:00 pm, Bayreuth, Weather by CustomWeather, © 2017

Note: Actual official high and low records may vary slightly from our data, if they occured in-between our weather recording intervals... More about our weather records

Advertising

Bayreuth Weather History for the Previous 24 Hours

Scroll right to see more
 ConditionsComfort  
Time TempWeatherWind HumidityBarometerVisibility
2:00 pm
Sun, Feb 19
43 °FOvercast.5 mph66%30.15 "HgN/A
1:16 pm43 °FPartly sunny.3 mph66%30.16 "HgN/A
1:02 pm43 °FBroken clouds.3 mph66%30.17 "HgN/A
11:58 am41 °FSunny.6 mph93%30.25 "HgN/A
10:58 am37 °FSunny.No wind93%30.27 "HgN/A
10:16 am32 °FMore clouds than sun.No wind100%30.22 "HgN/A
9:18 am30 °FIce fog.No wind100%30.22 "Hg3 mi
8:58 am30 °FIce fog.No wind93%30.30 "Hg1 mi
8:27 am30 °FIce fog.No wind93%30.23 "Hg1 mi
8:21 am28 °FIce fog.No wind100%30.23 "Hg1 mi
7:58 am28 °FIce fog.No wind100%30.31 "Hg1 mi
7:38 am28 °FIce fog.No wind100%30.22 "Hg0 mi
7:09 am28 °FChilly.No wind100%30.22 "HgN/A
6:58 am28 °FIce fog.No wind100%30.29 "Hg0 mi
6:24 am28 °FChilly.No wind100%30.22 "HgN/A
6:19 am28 °FIce fog.No wind100%30.22 "Hg0 mi
5:49 am28 °FIce fog.No wind100%30.23 "Hg0 mi
5:30 am30 °FChilly.No wind93%30.23 "HgN/A
4:58 am30 °FIce fog.No wind93%30.29 "Hg0 mi
4:33 am30 °FIce fog.No wind93%30.23 "Hg0 mi
4:15 am32 °FChilly.No wind93%30.23 "HgN/A
3:58 am32 °FIce fog.No wind93%30.29 "Hg0 mi
3:20 am32 °FIce fog.No wind100%30.24 "Hg1 mi
2:58 am32 °FFog.No wind100%30.31 "Hg0 mi
2:29 am32 °FFog.No wind100%30.26 "Hg1 mi
2:21 am32 °FFog.No wind100%30.26 "Hg1 mi
2:06 am32 °FIce fog.No wind100%30.26 "Hg4 mi
12:58 am32 °FIce fog.No wind100%30.33 "Hg5 mi
11:58 pm
Sat, Feb 18
32 °FIce fog.No wind100%30.34 "Hg6 mi
10:58 pm32 °FIce fog.No wind100%30.34 "Hg4 mi
9:58 pm34 °FOvercast.No wind93%30.34 "HgN/A
8:58 pm36 °FFog.No wind93%30.34 "Hg6 mi
7:58 pm36 °FOvercast.No wind93%30.34 "HgN/A
6:58 pm37 °FOvercast.No wind93%30.34 "HgN/A
5:58 pm39 °FOvercast.No wind87%30.34 "HgN/A
4:58 pm39 °FOvercast.No wind87%30.32 "HgN/A
3:58 pm41 °FOvercast.No wind87%30.32 "HgN/A
3:10 pm41 °FMostly cloudy.No wind87%30.27 "HgN/A
Weather by CustomWeather, © 2017

See weather overviewHow to use our weather pages